COBALT1 EGMC-LEIB

Flight info

Callsign COBALT1
Flight time N/A
Altitude 33000
Route DET M604 LYD UM189 HAWKE/N0458F350 UM189 DRAKE L151 SITET UN859 VANAD UN858 BOKNO DCT LACOU DCT PUMAL N859 BCN Z174 CORDA
Aircraft B38M/M-SDE1FGHILORVWXY/HB1

Departure

Time 2026-05-04 20:34
Airport London Southend Airport (EGMC)

Arrival

Time N/A
Airport Ibiza Airport (LEIB)
Time Latitude Longitude Altitude Speed Heading
2026-05-04 20:10 51.56945 0.69859 49 ft 0 kts 203°
2026-05-04 20:11 51.56948 0.69861 49 ft 0 kts 203°
2026-05-04 20:27 51.56934 0.69851 49 ft 6 kts 203°
2026-05-04 20:28 51.56905 0.69806 51 ft 4 kts 262°
2026-05-04 20:28 51.56907 0.69740 52 ft 12 kts 276°
2026-05-04 20:28 51.56921 0.69565 52 ft 14 kts 271°
2026-05-04 20:28 51.56909 0.69432 52 ft 10 kts 260°
2026-05-04 20:29 51.56898 0.69330 52 ft 8 kts 260°
2026-05-04 20:29 51.56882 0.69260 52 ft 4 kts 237°
2026-05-04 20:29 51.56854 0.69194 52 ft 6 kts 234°
2026-05-04 20:29 51.56853 0.69190 52 ft 0 kts 234°
2026-05-04 20:30 51.56850 0.69183 52 ft 3 kts 238°
2026-05-04 20:30 51.56854 0.69101 52 ft 5 kts 310°
2026-05-04 20:30 51.56886 0.69052 52 ft 5 kts 311°
2026-05-04 20:30 51.56883 0.68977 52 ft 11 kts 231°
2026-05-04 20:31 51.56826 0.68853 52 ft 15 kts 234°
2026-05-04 20:31 51.56762 0.68709 55 ft 15 kts 234°
2026-05-04 20:31 51.56701 0.68573 55 ft 13 kts 233°
2026-05-04 20:31 51.56650 0.68464 57 ft 10 kts 233°
2026-05-04 20:32 51.56606 0.68371 58 ft 11 kts 233°
2026-05-04 20:32 51.56556 0.68270 61 ft 11 kts 220°
2026-05-04 20:32 51.56518 0.68210 63 ft 6 kts 268°
2026-05-04 20:32 51.56560 0.68222 62 ft 12 kts 81°
2026-05-04 20:33 51.56599 0.68348 59 ft 8 kts 53°
2026-05-04 20:33 51.56601 0.68352 59 ft 0 kts 53°
2026-05-04 20:34 51.56726 0.68627 55 ft 70 kts 54°
2026-05-04 20:34 51.57165 0.69598 49 ft 140 kts 55°
2026-05-04 20:34 51.57818 0.71083 323 ft 174 kts 56°
2026-05-04 20:34 51.58494 0.72694 1060 ft 180 kts 57°
2026-05-04 20:35 51.59150 0.74355 1990 ft 173 kts 58°
2026-05-04 20:35 51.59752 0.75996 2594 ft 181 kts 59°
2026-05-04 20:35 51.60496 0.78125 1660 ft 270 kts 60°
2026-05-04 20:35 51.61379 0.80778 1691 ft 258 kts 62°
2026-05-04 20:36 51.62164 0.83271 1774 ft 242 kts 63°
2026-05-04 20:36 51.62870 0.85711 2417 ft 246 kts 67°
2026-05-04 20:36 51.63419 0.88311 3183 ft 250 kts 75°
2026-05-04 20:36 51.63519 0.91170 3294 ft 260 kts 97°